Starlink 32080

operational
NORAD ID: 59683 Int'l Des: 2024-086 Owner: SPXS Country: US Constellation: starlink
LEOCIRCULAR

Starlink 32080について

説明を読み込み中...

リアルタイム位置

3D地球を読み込み中...

次回通過

高度履歴

Altitude vs Time

uPlot chart will show altitude changes over time

軌道要素

1 59683U 24086B 25257.51861710 -.00001024 00000-0 -27678-4 0 9994
2 59683 43.0014 338.7165 0001083 274.0820 85.9908 15.27586037 77134
Epoch: Sep 14, 2025 • Age: 18 hours

現在のステータス

高度 482.6 km
速度 7.63 km/s
衛星直下点 16.41°N, 45.91°E
打ち上げ日 May 8, 2024
運用期間 1.3 years
タイプ internet

技術仕様

分類 Payload
質量 730.00 kg
乾燥質量 700.00 kg
総質量 730.00 kg
長さ 0.30 m
直径 4.10 m
スパン 29.00 m
形状 Box + pan
製造者 SPXS
バスタイプ Starlink V2M
フェーズステータス In Orbit
所有者/国 SPXS/US

大規模コンステレーション

Loading constellations...